ONEWEB-0187, 48221

Orbit data source: Space-Track

ONEWEB-0187, 48221 is a payload satellite owned by One Web (NAA) (UK) in LEO that was launched on Sun, 25 Apr 2021 UTC via a SOYUZ-2-1B launch vehicle from the Vostochny Cosmodrome (VOSTO). Payload-class satellites include a variety of spacecraft equipped with specific instruments for various scientific and technological missions. These include communications satellites like Starlink; space stations such as the ISS; scientific satellites like the Hubble; Earth observation satellites from companies like Planet Labs, Umbra, and HawkEye 360; GPS; miniature CubeSats for education and research; and military/defense satellites.

Loading next visibility...
Identifier
48221, 2021-031M
Orbit
LEO
Country
Flag of UKUK
Related business
Manufacturer
One Web
Mission
Operational Commercial Communications
Bus & Motor
ARROW, Unknown motor
Mass
148 kg wet, ~140 kg dry
Launch date (UTC)
2021-04-25 (5 years ago)
Launch vehicle
SOYUZ-2-1B
Launch site
Vostochny Cosmodrome (VOSTO)
Object type
Payload
Rocket body
Debris
Shape & HBR
Trap Box + 2 Pan, 6.7 m
Radar Cross Section
3.464 m², Large (>1 m²)

Expand to show TLE details & history
Last TLE update: 1 day ago

TLE from 1 day ago
0 ONEWEB-0187
1 48221U 21031M   25305.52957169  .00000218  00000-0  55298-3 0  9996
2 48221  87.9004 335.0871 0001962  86.9714 273.1640 13.14505195218353
Epoch: 2025-11-01T12:42Z
TLE epoch observation values (Epoch: 2025-11-01T12:42:34.994Z)
Latitude
-0.00002°
Longitude
103.38295°
Altitude
1,208.593 km
Speed
7.25 km/s
True Right ascension
22h 20m 20s
True Declination
0° 00' 00"
Sunlit
Object was in daylight at epoch
Visualization orbit readout
Latitude
Unknown
Longitude
Unknown
Altitude
Unknown
Speed
Unknown
Apparent Right ascension
Unknown
Apparent Declination
Unknown
Sunlit
N/A
Visualization observer readout
Local Sidereal Time
09:16:19
Azimuth
Unknown
Elevation
Unknown
Doppler factor
Unknown
Orbital elements
Apogee altitude
1,204.382 km
Perigee altitude
1,201.407 km
Semi-major axis
7,581.032 km
Eccentricity
0.0002
Inclination
87.9004°
RAAN
335.0871°
Arg. of periapsis
86.9714°
True anomaly
273.14155°
Mean anomaly
273.164°
Eccentric anomaly
273.15278°
Mean motion
3.28814 °/min
Orbital period
109.48 mins
BSTAR
0.00055298
Loading maneuver chart data...
Computing Atmospheric mass density...
Loading historical data...
Loading historical data...
Loading historical data...
Loading historical data...
Loading historical data...
Loading historical data...
Loading historical data...

Documentation

Showing up to 5 results
|